Regional Weather Roundup
Issued by NWS

Home | Current Version | Previous Version | Graphics & Text | Print | Product List | Glossary Off
Versions: 1 2 3 4 5 6 7 8 9 10 11 12 13 14 15 16 17 18 19 20 21 22 23 24 25 26 27 28 29 30 31 32 33 34 35 36 37 38 39 40 41 42 43 44 45 46 47 48 49 50

000
ASUS43 KTOP 060708
RWRKS

WEATHER ROUNDUP FOR KANSAS
NATIONAL WEATHER SERVICE GOODLAND KS
100 AM CST FRI MAR 06 2015

NOTE:  "FAIR" INDICATES FEW OR NO CLOUDS BELOW 12,000 FEET WITH NO
SIGNIFICANT WEATHER AND/OR OBSTRUCTIONS TO VISIBILITY.

KSZ001>006-013>018-027>032-041>047-060800-
NORTHWEST KANSAS

CITY           SKY/WX    TMP DP  RH WIND       PRES   REMARKS
GOODLAND       CLEAR     26  21  81 W12       30.26F WCI  16
HAYS           CLEAR     28  10  47 SW9       30.29S
HILL CITY      CLEAR     27  13  55 SW7       30.28S
RUSSELL        CLEAR     28  17  63 S12       30.28F WCI  18
$$

KSZ061>065-074>080-084>089-060800-
SOUTHWEST KANSAS

CITY           SKY/WX    TMP DP  RH WIND       PRES   REMARKS
DODGE CITY     CLEAR     31  16  54 SW9       30.31F
ELKHART          N/A     31  20  64 SW9         N/A
GARDEN CITY    CLEAR     26  19  74 S8        30.30F
GREAT BEND     CLEAR     28  18  64 S10       30.32S WCI  19
LIBERAL        CLEAR     28  18  64 S8        30.33S
PRATT          CLEAR     28  23  80 S12       30.35F WCI  18
$$

KSZ066>073-081>083-090>101-060800-
SOUTHEAST KANSAS

CITY           SKY/WX    TMP DP  RH WIND       PRES   REMARKS
CHANUTE        CLEAR     27  19  72 S9        30.44F
COFFEYVILLE    CLEAR     24  18  77 S7        30.49F
HUTCHINSON     CLEAR     31  21  66 S12       30.36F WCI  22
MEDICINE LODGE   N/A     27  21  78 S3        30.38F
NEWTON         CLEAR     30  18  59 S14       30.38F WCI  20
PARSONS        CLEAR     28  19  69 S7        30.47F
WICHITA INTL   PTCLDY    32  19  58 S16       30.39F WCI  21
WICHITA JABRA  CLEAR     33  18  53 S17G25    30.39F WCI  22
WICHITA MCCONL CLEAR     32  18  58 S15       30.39F WCI  21
WINFIELD       MOCLDY    31  18  58 S13       30.44F WCI  21
$$

KSZ007>012-019>026-033>040-048>060-102>105-060800-
NORTHEAST KANSAS

CITY           SKY/WX    TMP DP  RH WIND       PRES   REMARKS
CONCORDIA      CLEAR     31  17  56 S20G26    30.26F WCI  19
EMPORIA        CLEAR     26  18  71 S13       30.38F WCI  15
LAWRENCE       CLEAR     22  14  71 SE8       30.42F
MANHATTAN      CLEAR     28  19  69 SW12      30.34F WCI  18
MARYSVILLE     CLEAR     27  18  69 S10       30.29F WCI  17
OLATHE IND     CLEAR     23  13  65 S13       30.42F WCI  11
OLATHE EXE     CLEAR     22  13  68 S9        30.42F
SALINA         CLEAR     32  20  61 S12       30.33F WCI  23
TOPEKA BILLARD CLEAR     27  16  63 S8        30.40F
TOPEKA FORBES  CLEAR     26  17  68 S10       30.38F WCI  16
$$


USA.gov is the U.S. government's official web portal to all federal, state and local government web resources and services.